Year,Month,Day,Hour,Minute,Value (Times are PST for temperature in C)
2007,04,03,00,00,0.00
2007,04,03,00,01,-0.10
2007,04,03,00,02,-0.10
2007,04,03,00,03,-0.10
2007,04,03,00,04,-0.10
2007,04,03,00,05,-0.10
2007,04,03,00,06,-0.10
2007,04,03,00,07,-0.10
2007,04,03,00,08,-0.10
2007,04,03,00,09,-0.10
2007,04,03,00,10,-0.10
2007,04,03,00,11,-0.10
2007,04,03,00,12,-0.10
2007,04,03,00,13,-0.10
2007,04,03,00,14,-0.10
2007,04,03,00,15,-0.10
2007,04,03,00,16,-0.10
2007,04,03,00,17,-0.10
2007,04,03,00,18,-0.10
2007,04,03,00,19,-0.10
2007,04,03,00,20,-0.10
2007,04,03,00,21,-0.10
2007,04,03,00,22,-0.10
2007,04,03,00,23,-0.10
2007,04,03,00,24,-0.10
2007,04,03,00,25,-0.10
2007,04,03,00,26,-0.10
2007,04,03,00,27,0.00
2007,04,03,00,28,0.10
2007,04,03,00,29,0.10
2007,04,03,00,30,0.10
2007,04,03,00,31,0.10
2007,04,03,00,32,0.10
2007,04,03,00,33,0.10
2007,04,03,00,34,0.10
2007,04,03,00,35,0.10
2007,04,03,00,36,0.10
2007,04,03,00,37,0.10
2007,04,03,00,38,0.10
2007,04,03,00,39,0.10
2007,04,03,00,40,0.00
2007,04,03,00,41,0.10
2007,04,03,00,42,0.10
2007,04,03,00,43,0.10
2007,04,03,00,44,0.10
2007,04,03,00,45,0.10
2007,04,03,00,46,0.10
2007,04,03,00,47,0.10
2007,04,03,00,48,0.10
2007,04,03,00,49,0.10
2007,04,03,00,50,0.10
2007,04,03,00,51,0.10
2007,04,03,00,52,0.10
2007,04,03,00,53,0.10
2007,04,03,00,54,0.10
2007,04,03,00,55,0.10
2007,04,03,00,56,0.20
2007,04,03,00,57,0.20
2007,04,03,00,58,0.20
2007,04,03,00,59,0.20
2007,04,03,01,00,0.20
2007,04,03,01,01,0.20
2007,04,03,01,02,0.20
2007,04,03,01,03,0.20
2007,04,03,01,04,0.10
2007,04,03,01,05,0.10
2007,04,03,01,06,0.20
2007,04,03,01,07,0.20
2007,04,03,01,08,0.20
2007,04,03,01,09,0.20
2007,04,03,01,10,0.20
2007,04,03,01,11,0.20
2007,04,03,01,12,0.20
2007,04,03,01,13,0.20
2007,04,03,01,14,0.20
2007,04,03,01,15,0.20
2007,04,03,01,16,0.20
2007,04,03,01,17,0.20
2007,04,03,01,18,0.30
2007,04,03,01,19,0.30
2007,04,03,01,20,0.30
2007,04,03,01,21,0.30
2007,04,03,01,22,0.30
2007,04,03,01,23,0.30
2007,04,03,01,24,0.40
2007,04,03,01,25,0.40
2007,04,03,01,26,0.40
2007,04,03,01,27,0.40
2007,04,03,01,28,0.40
2007,04,03,01,29,0.40
2007,04,03,01,30,0.40
2007,04,03,01,31,0.40
2007,04,03,01,32,0.40
2007,04,03,01,33,0.40
2007,04,03,01,34,0.40
2007,04,03,01,35,0.40
2007,04,03,01,36,0.40
2007,04,03,01,37,0.40
2007,04,03,01,38,0.40
2007,04,03,01,39,0.40
2007,04,03,01,40,0.40
2007,04,03,01,41,0.40
2007,04,03,01,42,0.40
2007,04,03,01,43,0.40
2007,04,03,01,44,0.40
2007,04,03,01,45,0.40
2007,04,03,01,46,0.40
2007,04,03,01,47,0.40
2007,04,03,01,48,0.40
2007,04,03,01,49,0.40
2007,04,03,01,50,0.40
2007,04,03,01,51,0.40
2007,04,03,01,52,0.40
2007,04,03,01,53,0.40
2007,04,03,01,54,0.40
2007,04,03,01,55,0.40
2007,04,03,01,56,0.40
2007,04,03,01,57,0.40
2007,04,03,01,58,0.40
2007,04,03,01,59,0.40
2007,04,03,02,00,0.40
2007,04,03,02,01,0.40
2007,04,03,02,02,0.40
2007,04,03,02,03,0.40
2007,04,03,02,04,0.40
2007,04,03,02,05,0.40
2007,04,03,02,06,0.40
2007,04,03,02,07,0.40
2007,04,03,02,08,0.40
2007,04,03,02,09,0.40
2007,04,03,02,10,0.40
2007,04,03,02,11,0.40
2007,04,03,02,12,0.40
2007,04,03,02,13,0.40
2007,04,03,02,14,0.40
2007,04,03,02,15,0.40
2007,04,03,02,16,0.40
2007,04,03,02,17,0.30
2007,04,03,02,18,0.30
2007,04,03,02,19,0.30
2007,04,03,02,20,0.30
2007,04,03,02,21,0.30
2007,04,03,02,22,0.30
2007,04,03,02,23,0.30
2007,04,03,02,24,0.30
2007,04,03,02,25,0.30
2007,04,03,02,26,0.40
2007,04,03,02,27,0.40
2007,04,03,02,28,0.40
2007,04,03,02,29,0.40
2007,04,03,02,30,0.40
2007,04,03,02,31,0.50
2007,04,03,02,32,0.50
2007,04,03,02,33,0.50
2007,04,03,02,34,0.50
2007,04,03,02,35,0.50
2007,04,03,02,36,0.50
2007,04,03,02,37,0.50
2007,04,03,02,38,0.50
2007,04,03,02,39,0.40
2007,04,03,02,40,0.40
2007,04,03,02,41,0.40
2007,04,03,02,42,0.40
2007,04,03,02,43,0.40
2007,04,03,02,44,0.40
2007,04,03,02,45,0.40
2007,04,03,02,46,0.40
2007,04,03,02,47,0.40
2007,04,03,02,48,0.50
2007,04,03,02,49,0.50
2007,04,03,02,50,0.50
2007,04,03,02,51,0.50
2007,04,03,02,52,0.50
2007,04,03,02,53,0.50
2007,04,03,02,54,0.40
2007,04,03,02,55,0.40
2007,04,03,02,56,0.40
2007,04,03,02,57,0.40
2007,04,03,02,58,0.40
2007,04,03,02,59,0.40
2007,04,03,03,00,0.40
2007,04,03,03,01,0.40
2007,04,03,03,02,0.40
2007,04,03,03,03,0.40
2007,04,03,03,04,0.40
2007,04,03,03,05,0.40
2007,04,03,03,06,0.40
2007,04,03,03,07,0.40
2007,04,03,03,08,0.40
2007,04,03,03,09,0.40
2007,04,03,03,10,0.40
2007,04,03,03,11,0.40
2007,04,03,03,12,0.40
2007,04,03,03,13,0.40
2007,04,03,03,14,0.40
2007,04,03,03,15,0.40
2007,04,03,03,16,0.40
2007,04,03,03,17,0.40
2007,04,03,03,18,0.40
2007,04,03,03,19,0.40
2007,04,03,03,20,0.40
2007,04,03,03,21,0.40
2007,04,03,03,22,0.30
2007,04,03,03,23,0.30
2007,04,03,03,24,0.30
2007,04,03,03,25,0.30
2007,04,03,03,26,0.20
2007,04,03,03,27,0.20
2007,04,03,03,28,0.20
2007,04,03,03,29,0.10
2007,04,03,03,30,0.10
2007,04,03,03,31,0.10
2007,04,03,03,32,0.10
2007,04,03,03,33,0.10
2007,04,03,03,34,-0.10
2007,04,03,03,35,-0.10
2007,04,03,03,36,-0.10
2007,04,03,03,37,-0.10
2007,04,03,03,38,-0.10
2007,04,03,03,39,-0.10
2007,04,03,03,40,-0.10
2007,04,03,03,41,-0.10
2007,04,03,03,42,0.00
2007,04,03,03,43,0.10
2007,04,03,03,44,0.10
2007,04,03,03,45,0.10
2007,04,03,03,46,0.10
2007,04,03,03,47,0.10
2007,04,03,03,48,0.10
2007,04,03,03,49,0.10
2007,04,03,03,50,0.10
2007,04,03,03,51,0.10
2007,04,03,03,52,0.10
2007,04,03,03,53,0.10
2007,04,03,03,54,0.10
2007,04,03,03,55,0.20
2007,04,03,03,56,0.20
2007,04,03,03,57,0.20
2007,04,03,03,58,0.20
2007,04,03,03,59,0.20
2007,04,03,04,00,0.20
2007,04,03,04,01,0.20
2007,04,03,04,02,0.30
2007,04,03,04,03,0.30
2007,04,03,04,04,0.30
2007,04,03,04,05,0.40
2007,04,03,04,06,0.40
2007,04,03,04,07,0.40
2007,04,03,04,08,0.40
2007,04,03,04,09,0.40
2007,04,03,04,10,0.40
2007,04,03,04,11,0.40
2007,04,03,04,12,0.40
2007,04,03,04,13,0.40
2007,04,03,04,14,0.40
2007,04,03,04,15,0.40
2007,04,03,04,16,0.40
2007,04,03,04,17,0.40
2007,04,03,04,18,0.40
2007,04,03,04,19,0.40
2007,04,03,04,20,0.40
2007,04,03,04,21,0.40
2007,04,03,04,22,0.40
2007,04,03,04,23,0.40
2007,04,03,04,24,0.40
2007,04,03,04,25,0.40
2007,04,03,04,26,0.50
2007,04,03,04,27,0.50
2007,04,03,04,28,0.50
2007,04,03,04,29,0.50
2007,04,03,04,30,0.50
2007,04,03,04,31,0.50
2007,04,03,04,32,0.50
2007,04,03,04,33,0.50
2007,04,03,04,34,0.60
2007,04,03,04,35,0.60
2007,04,03,04,36,0.60
2007,04,03,04,37,0.60
2007,04,03,04,38,0.70
2007,04,03,04,39,0.70
2007,04,03,04,40,0.70
2007,04,03,04,41,0.70
2007,04,03,04,42,0.70
2007,04,03,04,43,0.80
2007,04,03,04,44,0.80
2007,04,03,04,45,0.80
2007,04,03,04,46,0.80
2007,04,03,04,47,0.80
2007,04,03,04,48,0.80
2007,04,03,04,49,0.80
2007,04,03,04,50,0.80
2007,04,03,04,51,0.80
2007,04,03,04,52,0.80
2007,04,03,04,53,0.80
2007,04,03,04,54,0.80
2007,04,03,04,55,0.80
2007,04,03,04,56,0.80
2007,04,03,04,57,0.90
2007,04,03,04,58,0.90
2007,04,03,04,59,0.90
2007,04,03,05,00,0.90
2007,04,03,05,01,0.90
2007,04,03,05,02,0.90
2007,04,03,05,03,0.90
2007,04,03,05,04,0.90
2007,04,03,05,05,0.90
2007,04,03,05,06,0.90
2007,04,03,05,07,0.90
2007,04,03,05,08,0.90
2007,04,03,05,09,0.90
2007,04,03,05,10,0.90
2007,04,03,05,11,0.80
2007,04,03,05,12,0.80
2007,04,03,05,13,0.80
2007,04,03,05,14,0.80
2007,04,03,05,15,0.80
2007,04,03,05,16,0.80
2007,04,03,05,17,0.80
2007,04,03,05,18,0.80
2007,04,03,05,19,0.80
2007,04,03,05,20,0.80
2007,04,03,05,21,0.80
2007,04,03,05,22,0.80
2007,04,03,05,23,0.80
2007,04,03,05,24,0.80
2007,04,03,05,25,0.70
2007,04,03,05,26,0.70
2007,04,03,05,27,0.70
2007,04,03,05,28,0.70
2007,04,03,05,29,0.70
2007,04,03,05,30,0.80
2007,04,03,05,31,0.80
2007,04,03,05,32,0.80
2007,04,03,05,33,0.80
2007,04,03,05,34,0.80
2007,04,03,05,35,0.80
2007,04,03,05,36,0.80
2007,04,03,05,37,0.80
2007,04,03,05,38,0.80
2007,04,03,05,39,0.80
2007,04,03,05,40,0.90
2007,04,03,05,41,0.90
2007,04,03,05,42,0.90
2007,04,03,05,43,0.90
2007,04,03,05,44,0.90
2007,04,03,05,45,1.00
2007,04,03,05,46,1.00
2007,04,03,05,47,1.00
2007,04,03,05,48,1.00
2007,04,03,05,49,1.10
2007,04,03,05,50,1.20
2007,04,03,05,51,1.30
2007,04,03,05,52,1.30
2007,04,03,05,53,1.30
2007,04,03,05,54,1.40
2007,04,03,05,55,1.40
2007,04,03,05,56,1.50
2007,04,03,05,57,1.50
2007,04,03,05,58,1.50
2007,04,03,05,59,1.60
2007,04,03,06,00,1.60
2007,04,03,06,01,1.60
2007,04,03,06,02,1.60
2007,04,03,06,03,1.70
2007,04,03,06,04,1.70
2007,04,03,06,05,1.70
2007,04,03,06,06,1.80
2007,04,03,06,07,1.80
2007,04,03,06,08,1.80
2007,04,03,06,09,1.80
2007,04,03,06,10,1.80
2007,04,03,06,11,1.80
2007,04,03,06,12,1.80
2007,04,03,06,13,1.80
2007,04,03,06,14,1.80
2007,04,03,06,15,1.80
2007,04,03,06,16,1.80
2007,04,03,06,17,1.80
2007,04,03,06,18,1.90
2007,04,03,06,19,1.90
2007,04,03,06,20,1.90
2007,04,03,06,21,1.90
2007,04,03,06,22,1.90
2007,04,03,06,23,1.90
2007,04,03,06,24,1.90
2007,04,03,06,25,1.90
2007,04,03,06,26,1.90
2007,04,03,06,27,1.90
2007,04,03,06,28,1.90
2007,04,03,06,29,1.90
2007,04,03,06,30,1.90
2007,04,03,06,31,1.90
2007,04,03,06,32,1.90
2007,04,03,06,33,1.90
2007,04,03,06,34,1.90
2007,04,03,06,35,1.90
2007,04,03,06,36,1.90
2007,04,03,06,37,1.90
2007,04,03,06,38,1.80
2007,04,03,06,39,1.80
2007,04,03,06,40,1.80
2007,04,03,06,41,1.80
2007,04,03,06,42,1.80
2007,04,03,06,43,1.80
2007,04,03,06,44,1.80
2007,04,03,06,45,1.80
2007,04,03,06,46,1.80
2007,04,03,06,47,1.80
2007,04,03,06,48,1.80
2007,04,03,06,49,1.80
2007,04,03,06,50,1.80
2007,04,03,06,51,1.80
2007,04,03,06,52,1.80
2007,04,03,06,53,1.80
2007,04,03,06,54,1.80
2007,04,03,06,55,1.80
2007,04,03,06,56,1.80
2007,04,03,06,57,1.80
2007,04,03,06,58,1.80
2007,04,03,06,59,1.80
2007,04,03,07,00,1.80
2007,04,03,07,01,1.80
2007,04,03,07,02,1.80
2007,04,03,07,03,1.80
2007,04,03,07,04,1.80
2007,04,03,07,05,1.80
2007,04,03,07,06,1.80
2007,04,03,07,07,1.80
2007,04,03,07,08,1.80
2007,04,03,07,09,1.80
2007,04,03,07,10,1.80
2007,04,03,07,11,1.80
2007,04,03,07,12,1.80
2007,04,03,07,13,1.80
2007,04,03,07,14,1.80
2007,04,03,07,15,1.80
2007,04,03,07,16,1.80
2007,04,03,07,17,1.80
2007,04,03,07,18,1.80
2007,04,03,07,19,1.80
2007,04,03,07,20,1.80
2007,04,03,07,21,1.80
2007,04,03,07,22,1.90
2007,04,03,07,23,1.90
2007,04,03,07,24,1.90
2007,04,03,07,25,2.00
2007,04,03,07,26,2.00
2007,04,03,07,27,2.00
2007,04,03,07,28,2.10
2007,04,03,07,29,2.10
2007,04,03,07,30,2.10
2007,04,03,07,31,2.10
2007,04,03,07,32,2.20
2007,04,03,07,33,2.20
2007,04,03,07,34,2.20
2007,04,03,07,35,2.20
2007,04,03,07,36,2.30
2007,04,03,07,37,2.30
2007,04,03,07,38,2.30
2007,04,03,07,39,2.40
2007,04,03,07,40,2.40
2007,04,03,07,41,2.50
2007,04,03,07,42,2.50
2007,04,03,07,43,2.50
2007,04,03,07,44,2.60
2007,04,03,07,45,2.60
2007,04,03,07,46,2.70
2007,04,03,07,47,2.70
2007,04,03,07,48,2.70
2007,04,03,07,49,2.70
2007,04,03,07,50,2.70
2007,04,03,07,51,2.80
2007,04,03,07,52,2.80
2007,04,03,07,53,2.90
2007,04,03,07,54,2.90
2007,04,03,07,55,2.90
2007,04,03,07,56,3.00
2007,04,03,07,57,3.10
2007,04,03,07,58,3.10
2007,04,03,07,59,3.10
2007,04,03,08,00,3.20
2007,04,03,08,01,3.20
2007,04,03,08,02,3.20
2007,04,03,08,03,3.30
2007,04,03,08,04,3.30
2007,04,03,08,05,3.30
2007,04,03,08,06,3.30
2007,04,03,08,07,3.40
2007,04,03,08,08,3.40
2007,04,03,08,09,3.40
2007,04,03,08,10,3.40
2007,04,03,08,11,3.50
2007,04,03,08,12,3.50
2007,04,03,08,13,3.50
2007,04,03,08,14,3.60
2007,04,03,08,15,3.60
2007,04,03,08,16,3.60
2007,04,03,08,17,3.70
2007,04,03,08,18,3.70
2007,04,03,08,19,3.70
2007,04,03,08,20,3.80
2007,04,03,08,21,3.80
2007,04,03,08,22,3.80
2007,04,03,08,23,3.80
2007,04,03,08,24,3.80
2007,04,03,08,25,3.80
2007,04,03,08,26,3.80
2007,04,03,08,27,3.90
2007,04,03,08,28,3.90
2007,04,03,08,29,4.00
2007,04,03,08,30,4.00
2007,04,03,08,31,4.00
2007,04,03,08,32,4.10
2007,04,03,08,33,4.10
2007,04,03,08,34,4.20
2007,04,03,08,35,4.20
2007,04,03,08,36,4.20
2007,04,03,08,37,4.20
2007,04,03,08,38,4.20
2007,04,03,08,39,4.20
2007,04,03,08,40,4.20
2007,04,03,08,41,4.20
2007,04,03,08,42,4.20
2007,04,03,08,43,4.20
2007,04,03,08,44,4.20
2007,04,03,08,45,4.20
2007,04,03,08,46,4.30
2007,04,03,08,47,4.40
2007,04,03,08,48,4.40
2007,04,03,08,49,4.40
2007,04,03,08,50,4.40
2007,04,03,08,51,4.40
2007,04,03,08,52,4.40
2007,04,03,08,53,4.40
2007,04,03,08,54,4.40
2007,04,03,08,55,4.40
2007,04,03,08,56,4.40
2007,04,03,08,57,4.50
2007,04,03,08,58,4.50
2007,04,03,08,59,4.60
2007,04,03,09,00,4.60
2007,04,03,09,01,4.60
2007,04,03,09,02,4.60
2007,04,03,09,03,4.60
2007,04,03,09,04,4.60
2007,04,03,09,05,4.60
2007,04,03,09,06,4.70
2007,04,03,09,07,4.70
2007,04,03,09,08,4.70
2007,04,03,09,09,4.60
2007,04,03,09,10,4.70
2007,04,03,09,11,4.70
2007,04,03,09,12,4.70
2007,04,03,09,13,4.70
2007,04,03,09,14,4.80
2007,04,03,09,15,4.80
2007,04,03,09,16,4.80
2007,04,03,09,17,4.80
2007,04,03,09,18,4.80
2007,04,03,09,19,4.80
2007,04,03,09,20,4.80
2007,04,03,09,21,4.70
2007,04,03,09,22,4.70
2007,04,03,09,23,4.70
2007,04,03,09,24,4.70
2007,04,03,09,25,4.80
2007,04,03,09,26,4.80
2007,04,03,09,27,4.90
2007,04,03,09,28,4.90
2007,04,03,09,29,4.90
2007,04,03,09,30,4.90
2007,04,03,09,31,4.90
2007,04,03,09,32,5.00
2007,04,03,09,33,5.10
2007,04,03,09,34,5.10
2007,04,03,09,35,5.20
2007,04,03,09,36,5.20
2007,04,03,09,37,5.20
2007,04,03,09,38,5.30
2007,04,03,09,39,5.30
2007,04,03,09,40,5.20
2007,04,03,09,41,5.20
2007,04,03,09,42,5.10
2007,04,03,09,43,5.10
2007,04,03,09,44,5.10
2007,04,03,09,45,5.10
2007,04,03,09,46,5.20
2007,04,03,09,47,5.20
2007,04,03,09,48,5.20
2007,04,03,09,49,5.20
2007,04,03,09,50,5.20
2007,04,03,09,51,5.20
2007,04,03,09,52,5.20
2007,04,03,09,53,5.30
2007,04,03,09,54,5.30
2007,04,03,09,55,5.30
2007,04,03,09,56,5.30
2007,04,03,09,57,5.40
2007,04,03,09,58,5.50
2007,04,03,09,59,5.50
2007,04,03,10,00,5.50
2007,04,03,10,01,5.50
2007,04,03,10,02,5.50
2007,04,03,10,03,5.50
2007,04,03,10,04,5.50
2007,04,03,10,05,5.50
2007,04,03,10,06,5.50
2007,04,03,10,07,5.60
2007,04,03,10,08,5.60
2007,04,03,10,09,5.60
2007,04,03,10,10,5.60
2007,04,03,10,11,5.60
2007,04,03,10,12,5.70
2007,04,03,10,13,5.70
2007,04,03,10,14,5.70
2007,04,03,10,15,5.70
2007,04,03,10,16,5.70
2007,04,03,10,17,5.70
2007,04,03,10,18,5.70
2007,04,03,10,19,5.70
2007,04,03,10,20,5.70
2007,04,03,10,21,5.60
2007,04,03,10,22,5.50
2007,04,03,10,23,5.50
2007,04,03,10,24,5.60
2007,04,03,10,25,5.60
2007,04,03,10,26,5.60
2007,04,03,10,27,5.70
2007,04,03,10,28,5.70
2007,04,03,10,29,5.70
2007,04,03,10,30,5.80
2007,04,03,10,31,5.80
2007,04,03,10,32,5.70
2007,04,03,10,33,5.70
2007,04,03,10,34,5.70
2007,04,03,10,35,5.70
2007,04,03,10,36,5.70
2007,04,03,10,37,5.70
2007,04,03,10,38,5.70
2007,04,03,10,39,5.70
2007,04,03,10,40,5.70
2007,04,03,10,41,5.70
2007,04,03,10,42,5.70
2007,04,03,10,43,5.70
2007,04,03,10,44,5.70
2007,04,03,10,45,5.70
2007,04,03,10,46,5.80
2007,04,03,10,47,5.70
2007,04,03,10,48,5.70
2007,04,03,10,49,5.70
2007,04,03,10,50,5.70
2007,04,03,10,51,5.70
2007,04,03,10,52,5.70
2007,04,03,10,53,5.70
2007,04,03,10,54,5.70
2007,04,03,10,55,5.80
2007,04,03,10,56,5.80
2007,04,03,10,57,5.80
2007,04,03,10,58,5.80
2007,04,03,10,59,5.90
2007,04,03,11,00,5.90
2007,04,03,11,01,6.00
2007,04,03,11,02,6.00
2007,04,03,11,03,6.00
2007,04,03,11,04,6.10
2007,04,03,11,05,6.10
2007,04,03,11,06,6.10
2007,04,03,11,07,6.20
2007,04,03,11,08,6.20
2007,04,03,11,09,6.20
2007,04,03,11,10,6.20
2007,04,03,11,11,6.10
2007,04,03,11,12,6.10
2007,04,03,11,13,6.00
2007,04,03,11,14,6.00
2007,04,03,11,15,6.10
2007,04,03,11,16,6.10
2007,04,03,11,17,6.10
2007,04,03,11,18,6.10
2007,04,03,11,19,6.20
2007,04,03,11,20,6.30
2007,04,03,11,21,6.30
2007,04,03,11,22,6.30
2007,04,03,11,23,6.30
2007,04,03,11,24,6.40
2007,04,03,11,25,6.30
2007,04,03,11,26,6.40
2007,04,03,11,27,6.40
2007,04,03,11,28,6.50
2007,04,03,11,29,6.60
2007,04,03,11,30,6.60
2007,04,03,11,31,6.60
2007,04,03,11,32,6.70
2007,04,03,11,33,6.80
2007,04,03,11,34,6.80
2007,04,03,11,35,6.80
2007,04,03,11,36,6.80
2007,04,03,11,37,6.80
2007,04,03,11,38,6.80
2007,04,03,11,39,6.70
2007,04,03,11,40,6.70
2007,04,03,11,41,6.70
2007,04,03,11,42,6.80
2007,04,03,11,43,6.80
2007,04,03,11,44,6.90
2007,04,03,11,45,6.90
2007,04,03,11,46,7.00
2007,04,03,11,47,7.00
2007,04,03,11,48,6.90
2007,04,03,11,49,6.90
2007,04,03,11,50,6.80
2007,04,03,11,51,6.80
2007,04,03,11,52,6.80
2007,04,03,11,53,6.80
2007,04,03,11,54,6.80
2007,04,03,11,55,6.80
2007,04,03,11,56,6.80
2007,04,03,11,57,6.70
2007,04,03,11,58,6.70
2007,04,03,11,59,6.70
2007,04,03,12,00,6.70
2007,04,03,12,01,6.70
2007,04,03,12,02,6.70
2007,04,03,12,03,6.80
2007,04,03,12,04,6.80
2007,04,03,12,05,7.00
2007,04,03,12,06,7.00
2007,04,03,12,07,7.10
2007,04,03,12,08,7.20
2007,04,03,12,09,7.10
2007,04,03,12,10,7.10
2007,04,03,12,11,7.10
2007,04,03,12,12,7.10
2007,04,03,12,13,7.10
2007,04,03,12,14,7.10
2007,04,03,12,15,7.10
2007,04,03,12,16,7.20
2007,04,03,12,17,7.20
2007,04,03,12,18,7.20
2007,04,03,12,19,7.20
2007,04,03,12,20,7.20
2007,04,03,12,21,7.20
2007,04,03,12,22,7.20
2007,04,03,12,23,7.20
2007,04,03,12,24,7.30
2007,04,03,12,25,7.50
2007,04,03,12,26,7.50
2007,04,03,12,27,7.60
2007,04,03,12,28,7.60
2007,04,03,12,29,7.60
2007,04,03,12,30,7.60
2007,04,03,12,31,7.50
2007,04,03,12,32,7.40
2007,04,03,12,33,7.30
2007,04,03,12,34,7.30
2007,04,03,12,35,7.30
2007,04,03,12,36,7.40
2007,04,03,12,37,7.40
2007,04,03,12,38,7.40
2007,04,03,12,39,7.30
2007,04,03,12,40,7.30
2007,04,03,12,41,7.30
2007,04,03,12,42,7.30
2007,04,03,12,43,7.30
2007,04,03,12,44,7.30
2007,04,03,12,45,7.30
2007,04,03,12,46,7.30
2007,04,03,12,47,7.30
2007,04,03,12,48,7.20
2007,04,03,12,49,7.20
2007,04,03,12,50,7.30
2007,04,03,12,51,7.30
2007,04,03,12,52,7.20
2007,04,03,12,53,7.20
2007,04,03,12,54,7.20
2007,04,03,12,55,7.40
2007,04,03,12,56,7.50
2007,04,03,12,57,7.60
2007,04,03,12,58,7.70
2007,04,03,12,59,7.80
2007,04,03,13,00,7.80
2007,04,03,13,01,7.80
2007,04,03,13,02,7.70
2007,04,03,13,03,7.60
2007,04,03,13,04,7.60
2007,04,03,13,05,7.60
2007,04,03,13,06,7.60
2007,04,03,13,07,7.60
2007,04,03,13,08,7.70
2007,04,03,13,09,7.70
2007,04,03,13,10,7.70
2007,04,03,13,11,7.80
2007,04,03,13,12,7.80
2007,04,03,13,13,7.80
2007,04,03,13,14,7.70
2007,04,03,13,15,7.60
2007,04,03,13,16,7.50
2007,04,03,13,17,7.60
2007,04,03,13,18,7.70
2007,04,03,13,19,7.80
2007,04,03,13,20,7.90
2007,04,03,13,21,7.90
2007,04,03,13,22,7.80
2007,04,03,13,23,7.80
2007,04,03,13,24,7.80
2007,04,03,13,25,7.80
2007,04,03,13,26,7.80
2007,04,03,13,27,7.80
2007,04,03,13,28,7.90
2007,04,03,13,29,7.90
2007,04,03,13,30,7.90
2007,04,03,13,31,7.90
2007,04,03,13,32,7.80
2007,04,03,13,33,7.90
2007,04,03,13,34,8.00
2007,04,03,13,35,8.10
2007,04,03,13,36,8.10
2007,04,03,13,37,8.10
2007,04,03,13,38,8.10
2007,04,03,13,39,8.10
2007,04,03,13,40,8.20
2007,04,03,13,41,8.30
2007,04,03,13,42,8.30
2007,04,03,13,43,8.40
2007,04,03,13,44,8.50
2007,04,03,13,45,8.40
2007,04,03,13,46,8.40
2007,04,03,13,47,8.40
2007,04,03,13,48,8.20
2007,04,03,13,49,8.20
2007,04,03,13,50,8.20
2007,04,03,13,51,8.20
2007,04,03,13,52,8.30
2007,04,03,13,53,8.40
2007,04,03,13,54,8.40
2007,04,03,13,55,8.40
2007,04,03,13,56,8.40
2007,04,03,13,57,8.40
2007,04,03,13,58,8.40
2007,04,03,13,59,8.50
2007,04,03,14,00,8.50
2007,04,03,14,01,8.50
2007,04,03,14,02,8.50
2007,04,03,14,03,8.50
2007,04,03,14,04,8.60
2007,04,03,14,05,8.70
2007,04,03,14,06,8.70
2007,04,03,14,07,8.80
2007,04,03,14,08,8.80
2007,04,03,14,09,8.80
2007,04,03,14,10,8.80
2007,04,03,14,11,8.80
2007,04,03,14,12,8.80
2007,04,03,14,13,8.60
2007,04,03,14,14,8.60
2007,04,03,14,15,8.70
2007,04,03,14,16,8.70
2007,04,03,14,17,8.70
2007,04,03,14,18,8.70
2007,04,03,14,19,8.70
2007,04,03,14,20,8.70
2007,04,03,14,21,8.60
2007,04,03,14,22,8.60
2007,04,03,14,23,8.70
2007,04,03,14,24,8.70
2007,04,03,14,25,8.80
2007,04,03,14,26,8.80
2007,04,03,14,27,8.80
2007,04,03,14,28,8.90
2007,04,03,14,29,8.90
2007,04,03,14,30,8.80
2007,04,03,14,31,8.80
2007,04,03,14,32,8.70
2007,04,03,14,33,8.70
2007,04,03,14,34,8.70
2007,04,03,14,35,8.70
2007,04,03,14,36,8.60
2007,04,03,14,37,8.60
2007,04,03,14,38,8.70
2007,04,03,14,39,8.70
2007,04,03,14,40,8.90
2007,04,03,14,41,8.90
2007,04,03,14,42,8.90
2007,04,03,14,43,8.80
2007,04,03,14,44,8.80
2007,04,03,14,45,8.80
2007,04,03,14,46,8.90
2007,04,03,14,47,8.90
2007,04,03,14,48,8.90
2007,04,03,14,49,8.90
2007,04,03,14,50,8.80
2007,04,03,14,51,8.80
2007,04,03,14,52,8.80
2007,04,03,14,53,8.90
2007,04,03,14,54,9.00
2007,04,03,14,55,9.00
2007,04,03,14,56,9.00
2007,04,03,14,57,9.10
2007,04,03,14,58,9.20
2007,04,03,14,59,9.20
2007,04,03,15,00,9.30
2007,04,03,15,01,9.30
2007,04,03,15,02,9.30
2007,04,03,15,03,9.30
2007,04,03,15,04,9.30
2007,04,03,15,05,9.20
2007,04,03,15,06,9.20
2007,04,03,15,07,9.10
2007,04,03,15,08,9.10
2007,04,03,15,09,9.10
2007,04,03,15,10,9.00
2007,04,03,15,11,9.00
2007,04,03,15,12,9.00
2007,04,03,15,13,9.10
2007,04,03,15,14,9.20
2007,04,03,15,15,9.20
2007,04,03,15,16,9.20
2007,04,03,15,17,9.40
2007,04,03,15,18,9.40
2007,04,03,15,19,9.40
2007,04,03,15,20,9.40
2007,04,03,15,21,9.30
2007,04,03,15,22,9.30
2007,04,03,15,23,9.40
2007,04,03,15,24,9.40
2007,04,03,15,25,9.40
2007,04,03,15,26,9.50
2007,04,03,15,27,9.40
2007,04,03,15,28,9.40
2007,04,03,15,29,9.40
2007,04,03,15,30,9.30
2007,04,03,15,31,9.20
2007,04,03,15,32,9.20
2007,04,03,15,33,9.20
2007,04,03,15,34,9.20
2007,04,03,15,35,9.20
2007,04,03,15,36,9.20
2007,04,03,15,37,9.20
2007,04,03,15,38,9.20
2007,04,03,15,39,9.20
2007,04,03,15,40,9.20
2007,04,03,15,41,9.20
2007,04,03,15,42,9.20
2007,04,03,15,43,9.20
2007,04,03,15,44,9.20
2007,04,03,15,45,9.20
2007,04,03,15,46,9.20
2007,04,03,15,47,9.20
2007,04,03,15,48,9.20
2007,04,03,15,49,9.20
2007,04,03,15,50,9.40
2007,04,03,15,51,9.40
2007,04,03,15,52,9.40
2007,04,03,15,53,9.40
2007,04,03,15,54,9.40
2007,04,03,15,55,9.40
2007,04,03,15,56,9.40
2007,04,03,15,57,9.40
2007,04,03,15,58,9.30
2007,04,03,15,59,9.20
2007,04,03,16,00,9.20
2007,04,03,16,01,9.20
2007,04,03,16,02,9.20
2007,04,03,16,03,9.10
2007,04,03,16,04,9.10
2007,04,03,16,05,9.10
2007,04,03,16,06,9.10
2007,04,03,16,07,9.10
2007,04,03,16,08,9.10
2007,04,03,16,09,9.20
2007,04,03,16,10,9.20
2007,04,03,16,11,9.20
2007,04,03,16,12,9.20
2007,04,03,16,13,9.20
2007,04,03,16,14,9.20
2007,04,03,16,15,9.20
2007,04,03,16,16,9.20
2007,04,03,16,17,9.30
2007,04,03,16,18,9.30
2007,04,03,16,19,9.30
2007,04,03,16,20,9.30
2007,04,03,16,21,9.30
2007,04,03,16,22,9.20
2007,04,03,16,23,9.30
2007,04,03,16,24,9.30
2007,04,03,16,25,9.40
2007,04,03,16,26,9.40
2007,04,03,16,27,9.40
2007,04,03,16,28,9.40
2007,04,03,16,29,9.30
2007,04,03,16,30,9.30
2007,04,03,16,31,9.30
2007,04,03,16,32,9.30
2007,04,03,16,33,9.30
2007,04,03,16,34,9.30
2007,04,03,16,35,9.30
2007,04,03,16,36,9.30
2007,04,03,16,37,9.30
2007,04,03,16,38,9.40
2007,04,03,16,39,9.40
2007,04,03,16,40,9.40
2007,04,03,16,41,9.40
2007,04,03,16,42,9.40
2007,04,03,16,43,9.40
2007,04,03,16,44,9.40
2007,04,03,16,45,9.40
2007,04,03,16,46,9.40
2007,04,03,16,47,9.40
2007,04,03,16,48,9.40
2007,04,03,16,49,9.40
2007,04,03,16,50,9.40
2007,04,03,16,51,9.40
2007,04,03,16,52,9.40
2007,04,03,16,53,9.40
2007,04,03,16,54,9.40
2007,04,03,16,55,9.30
2007,04,03,16,56,9.30
2007,04,03,16,57,9.40
2007,04,03,16,58,9.40
2007,04,03,16,59,9.40
2007,04,03,17,00,9.40
2007,04,03,17,01,9.40
2007,04,03,17,02,9.40
2007,04,03,17,03,9.40
2007,04,03,17,04,9.40
2007,04,03,17,05,9.30
2007,04,03,17,06,9.30
2007,04,03,17,07,9.30
2007,04,03,17,08,9.30
2007,04,03,17,09,9.30
2007,04,03,17,10,9.40
2007,04,03,17,11,9.40
2007,04,03,17,12,9.50
2007,04,03,17,13,9.50
2007,04,03,17,14,9.60
2007,04,03,17,15,9.70
2007,04,03,17,16,9.70
2007,04,03,17,17,9.70
2007,04,03,17,18,9.70
2007,04,03,17,19,9.70
2007,04,03,17,20,9.70
2007,04,03,17,21,9.70
2007,04,03,17,22,9.70
2007,04,03,17,23,9.60
2007,04,03,17,24,9.60
2007,04,03,17,25,9.50
2007,04,03,17,26,9.50
2007,04,03,17,27,9.50
2007,04,03,17,28,9.50
2007,04,03,17,29,9.50
2007,04,03,17,30,9.50
2007,04,03,17,31,9.50
2007,04,03,17,32,9.50
2007,04,03,17,33,9.50
2007,04,03,17,34,9.50
2007,04,03,17,35,9.40
2007,04,03,17,36,9.40
2007,04,03,17,37,9.40
2007,04,03,17,38,9.40
2007,04,03,17,39,9.40
2007,04,03,17,40,9.40
2007,04,03,17,41,9.40
2007,04,03,17,42,9.40
2007,04,03,17,43,9.30
2007,04,03,17,44,9.30
2007,04,03,17,45,9.30
2007,04,03,17,46,9.30
2007,04,03,17,47,9.30
2007,04,03,17,48,9.40
2007,04,03,17,49,9.40
2007,04,03,17,50,9.40
2007,04,03,17,51,9.40
2007,04,03,17,52,9.40
2007,04,03,17,53,9.30
2007,04,03,17,54,9.30
2007,04,03,17,55,9.20
2007,04,03,17,56,9.20
2007,04,03,17,57,9.20
2007,04,03,17,58,9.20
2007,04,03,17,59,9.20
2007,04,03,18,00,9.20
2007,04,03,18,01,9.20
2007,04,03,18,02,9.20
2007,04,03,18,03,9.20
2007,04,03,18,04,9.20
2007,04,03,18,05,9.20